Location: Dreilärchen
(47.9312°N, 8.6113°E)
Time: 23:38:42
(UTC+00:00)

ADEOS II - Pass Details

Date: 26 May 2022
Orbit: 799 x 800 km, 98.6° (Epoch: 02 July)

Event Time Altitude Azimuth Distance (km) Brightness Sun altitude
Rises 23:58:07 0° 33° (NNE) 3,317 6.5 -20.5°
Reaches altitude 10° 00:02:11 10° 64° (ENE) 2,380 5.0 -20.4°
Maximum altitude 00:04:07 12° 86° (E) 2,242 4.6 -20.4°
Drops below altitude 10° 00:06:02 10° 108° (ESE) 2,373 4.5 -20.3°
Enters shadow 00:07:49 - 124° (SE) 2,698 4.6 -20.2°
